| time (UTC) | temp F | wind direction | speed MPH | gust MPH | rain 1hr in | rain 24hr in | rain mn in | humidity % | barometer mb |
| 20260906074532 | 69 | 24 | 0.0 | 0.0 | 0.00 | 0.01 | 0.00 | 90 | 1015.9 |
| 20260906073048 | 69 | 24 | 0.0 | 2.0 | 0.00 | 0.01 | 0.00 | 90 | 1016.1 |
| 20260906071515 | 69 | 24 | 0.0 | 2.0 | 0.00 | 0.01 | 0.00 | 90 | 1016.2 |
| 20260906070035 | 69 | 24 | 0.0 | 2.0 | 0.00 | 0.01 | 0.00 | 89 | 1016.0 |
| 20260906064529 | 70 | 24 | 0.0 | 2.0 | 0.00 | 0.01 | 0.00 | 89 | 1016.2 |
| 20260906063030 | 70 | 24 | 0.0 | 2.0 | 0.00 | 0.01 | 0.00 | 89 | 1015.9 |
| 20260906061532 | 70 | 342 | 0.0 | 2.0 | 0.00 | 0.01 | 0.00 | 89 | 1016.2 |
| 20260906060020 | 70 | 342 | 0.0 | 2.0 | 0.00 | 0.01 | 0.00 | 89 | 1016.4 |
| 20260906054525 | 70 | 111 | 0.0 | 2.0 | 0.00 | 0.01 | 0.00 | 89 | 1016.5 |
| 20260906053036 | 70 | 18 | 1.0 | 2.0 | 0.00 | 0.01 | 0.00 | 89 | 1016.6 |
| 20260906051531 | 70 | 71 | 0.0 | 2.0 | 0.00 | 0.01 | 0.00 | 88 | 1016.5 |
| 20260906050018 | 70 | 71 | 1.0 | 2.0 | 0.00 | 0.01 | 0.00 | 88 | 1016.8 |
| 20260906044527 | 71 | 29 | 0.0 | 2.0 | 0.00 | 0.01 | 0.00 | 88 | 1016.8 |
| 20260906043004 | 71 | 51 | 0.0 | 2.0 | 0.00 | 0.01 | 0.00 | 89 | 1016.6 |
| 20260906041506 | 71 | 51 | 0.0 | 2.0 | 0.00 | 0.01 | 0.00 | 89 | 1016.4 |
| 20260906040005 | 71 | 51 | 0.0 | 2.0 | 0.00 | 0.01 | 0.00 | 88 | 1016.6 |
| 20260906034505 | 71 | 30 | 0.0 | 2.0 | 0.00 | 0.01 | 0.01 | 88 | 1016.7 |
| 20260906033006 | 71 | 30 | 0.0 | 2.0 | 0.00 | 0.01 | 0.01 | 88 | 1016.8 |
| 20260906031510 | 71 | 30 | 0.0 | 2.0 | 0.00 | 0.01 | 0.01 | 88 | 1016.9 |
| 20260906030007 | 71 | 30 | 0.0 | 2.0 | 0.00 | 0.01 | 0.01 | 88 | 1017.1 |
| 20260906024506 | 72 | 30 | 0.0 | 2.0 | 0.00 | 0.01 | 0.01 | 87 | 1016.8 |
| 20260906023006 | 72 | 30 | 0.0 | 1.0 | 0.00 | 0.01 | 0.01 | 86 | 1017.1 |
| 20260906021507 | 72 | 30 | 0.0 | 2.0 | 0.00 | 0.01 | 0.01 | 86 | 1016.9 |
| 20260906020009 | 72 | 30 | 1.0 | 2.0 | 0.00 | 0.01 | 0.01 | 85 | 1017.0 |
| 20260906014508 | 72 | 43 | 1.0 | 2.0 | 0.00 | 0.01 | 0.01 | 85 | 1016.8 |
| 20260906013009 | 73 | 5 | 0.0 | 2.0 | 0.00 | 0.01 | 0.01 | 84 | 1016.7 |
| 20260906011508 | 73 | 5 | 0.0 | 0.0 | 0.00 | 0.01 | 0.01 | 83 | 1016.4 |
| 20260906010010 | 74 | 5 | 0.0 | 0.0 | 0.00 | 0.01 | 0.01 | 82 | 1016.2 |
| 20260906004510 | 74 | 5 | 0.0 | 2.0 | 0.00 | 0.01 | 0.01 | 81 | 1016.1 |
| 20260906003009 | 75 | 5 | 0.0 | 2.0 | 0.00 | 0.01 | 0.01 | 79 | 1016.2 |
| 20260906001508 | 76 | 5 | 0.0 | 2.0 | 0.00 | 0.01 | 0.01 | 78 | 1016.2 |
| 20260906000013 | 77 | 5 | 0.0 | 2.0 | 0.00 | 0.01 | 0.01 | 76 | 1016.0 |
| 20260905234514 | 79 | 5 | 1.0 | 2.0 | 0.00 | 0.01 | 0.01 | 73 | 1015.9 |
| 20260905233013 | 81 | 5 | 0.0 | 2.0 | 0.00 | 0.01 | 0.01 | 69 | 1016.0 |
| 20260905231515 | 82 | 5 | 0.0 | 1.0 | 0.00 | 0.01 | 0.01 | 67 | 1015.8 |
| 20260905230015 | 83 | 11 | 1.0 | 3.0 | 0.00 | 0.01 | 0.01 | 63 | 1016.0 |
| 20260905224515 | 83 | 320 | 1.0 | 3.0 | 0.00 | 0.01 | 0.01 | 64 | 1016.1 |
| 20260905223018 | 85 | 306 | 1.0 | 4.0 | 0.00 | 0.07 | 0.01 | 62 | 1016.3 |
| 20260905221515 | 85 | 299 | 1.0 | 5.0 | 0.00 | 0.07 | 0.01 | 60 | 1016.4 |
| 20260905220016 | 85 | 242 | 0.0 | 2.0 | 0.00 | 0.07 | 0.01 | 65 | 1016.4 |
| 20260905214516 | 84 | 219 | 1.0 | 4.0 | 0.00 | 0.07 | 0.01 | 62 | 1016.2 |
| 20260905213019 | 84 | 165 | 1.0 | 3.0 | 0.00 | 0.07 | 0.01 | 61 | 1016.2 |
| 20260905211521 | 84 | 207 | 3.0 | 5.0 | 0.00 | 0.07 | 0.01 | 63 | 1016.3 |
| 20260905210018 | 84 | 294 | 1.0 | 8.0 | 0.00 | 0.07 | 0.01 | 63 | 1016.1 |
| 20260905204519 | 83 | 217 | 2.0 | 9.0 | 0.00 | 0.07 | 0.01 | 66 | 1016.2 |
| 20260905203021 | 83 | 279 | 3.0 | 7.0 | 0.00 | 0.07 | 0.01 | 64 | 1016.2 |
| 20260905201522 | 83 | 270 | 2.0 | 8.0 | 0.00 | 0.07 | 0.01 | 64 | 1016.2 |
| 20260905200025 | 82 | 170 | 4.0 | 6.0 | 0.00 | 0.07 | 0.01 | 63 | 1016.4 |
| 20260905194524 | 81 | 267 | 2.0 | 4.0 | 0.00 | 0.07 | 0.01 | 64 | 1016.7 |
| 20260905193024 | 81 | 209 | 2.0 | 5.0 | 0.00 | 0.07 | 0.01 | 68 | 1016.7 |
| 20260905191515 | 81 | 298 | 1.0 | 4.0 | 0.00 | 0.07 | 0.01 | 65 | 1016.9 |
| 20260905190042 | 79 | 299 | 2.0 | 7.0 | 0.00 | 0.07 | 0.01 | 68 | 1017.2 |
| 20260905184504 | 78 | 141 | 2.0 | 6.0 | 0.00 | 0.07 | 0.01 | 72 | 1017.6 |
| 20260905183026 | 77 | 194 | 3.0 | 4.0 | 0.00 | 0.07 | 0.01 | 73 | 1018.0 |
| 20260905181517 | 76 | 71 | 3.0 | 6.0 | 0.00 | 0.07 | 0.01 | 79 | 1018.3 |
| 20260905180028 | 73 | 88 | 0.0 | 2.0 | 0.00 | 0.07 | 0.01 | 83 | 1018.7 |
| 20260905174527 | 72 | 120 | 0.0 | 2.0 | 0.00 | 0.07 | 0.01 | 83 | 1019.3 |
| 20260905173006 | 71 | 286 | 0.0 | 4.0 | 0.00 | 0.07 | 0.01 | 84 | 1019.8 |
| 20260905171534 | 70 | 179 | 2.0 | 5.0 | 0.00 | 0.07 | 0.01 | 84 | 1019.8 |
| 20260905170016 | 70 | 336 | 1.0 | 2.0 | 0.00 | 0.07 | 0.01 | 85 | 1019.7 |
| 20260905164503 | 70 | 140 | 0.0 | 2.0 | 0.01 | 0.07 | 0.01 | 84 | 1019.4 |
| 20260905163028 | 71 | 21 | 0.0 | 2.0 | 0.01 | 0.07 | 0.01 | 82 | 1019.8 |
| 20260905161510 | 71 | 189 | 0.0 | 2.0 | 0.01 | 0.07 | 0.01 | 80 | 1019.7 |
| 20260905160031 | 73 | 342 | 2.0 | 20.0 | 0.01 | 0.07 | 0.01 | 75 | 1019.9 |
| 20260905154530 | 76 | 18 | 6.0 | 15.0 | 0.00 | 0.06 | 0.00 | 71 | 1019.9 |
| 20260905153006 | 79 | 5 | 0.0 | 2.0 | 0.00 | 0.06 | 0.00 | 79 | 1019.3 |
| 20260905151510 | 80 | 338 | 4.0 | 5.0 | 0.00 | 0.06 | 0.00 | 76 | 1019.2 |
| 20260905150029 | 80 | 209 | 2.0 | 5.0 | 0.00 | 0.06 | 0.00 | 74 | 1019.1 |
| 20260905144520 | 80 | 211 | 1.0 | 4.0 | 0.00 | 0.06 | 0.00 | 76 | 1018.7 |
| 20260905143030 | 79 | 252 | 0.0 | 3.0 | 0.00 | 0.06 | 0.00 | 77 | 1018.5 |
| 20260905141505 | 78 | 177 | 2.0 | 3.0 | 0.00 | 0.06 | 0.00 | 78 | 1018.7 |
| 20260905140034 | 77 | 196 | 1.0 | 3.0 | 0.00 | 0.06 | 0.00 | 80 | 1018.8 |
| 20260905134522 | 75 | 208 | 0.0 | 2.0 | 0.00 | 0.06 | 0.00 | 84 | 1019.1 |
| 20260905133030 | 73 | 205 | 0.0 | 3.0 | 0.00 | 0.06 | 0.00 | 86 | 1019.1 |
| 20260905131538 | 72 | 161 | 1.0 | 2.0 | 0.00 | 0.06 | 0.00 | 88 | 1018.9 |
| 20260905130040 | 71 | 247 | 1.0 | 3.0 | 0.00 | 0.06 | 0.00 | 91 | 1019.1 |
| 20260905124516 | 70 | 233 | 0.0 | 2.0 | 0.00 | 0.06 | 0.00 | 92 | 1019.2 |
| 20260905123024 | 69 | 94 | 0.0 | 2.0 | 0.00 | 0.06 | 0.00 | 92 | 1019.1 |
| 20260905121536 | 69 | 18 | 0.0 | 2.0 | 0.00 | 0.06 | 0.00 | 93 | 1019.1 |
| 20260905120033 | 68 | 18 | 0.0 | 2.0 | 0.00 | 0.06 | 0.00 | 92 | 1018.7 |
| 20260905114513 | 68 | 18 | 0.0 | 2.0 | 0.00 | 0.06 | 0.00 | 92 | 1018.7 |
| 20260905113032 | 68 | 18 | 0.0 | 0.0 | 0.00 | 0.06 | 0.00 | 91 | 1018.4 |
| 20260905111554 | 68 | 18 | 0.0 | 0.0 | 0.00 | 0.06 | 0.00 | 91 | 1018.4 |
| 20260905110030 | 68 | 18 | 0.0 | 2.0 | 0.00 | 0.06 | 0.00 | 92 | 1018.2 |
| 20260905104531 | 68 | 18 | 0.0 | 0.0 | 0.00 | 0.06 | 0.00 | 91 | 1018.1 |
| 20260905103024 | 68 | 18 | 0.0 | 2.0 | 0.00 | 0.06 | 0.00 | 91 | 1018.0 |
| 20260905101504 | 68 | 18 | 0.0 | 2.0 | 0.00 | 0.06 | 0.00 | 90 | 1017.9 |
| 20260905100012 | 68 | 18 | 0.0 | 2.0 | 0.00 | 0.06 | 0.00 | 91 | 1017.7 |
| 20260905094513 | 68 | 18 | 0.0 | 2.0 | 0.00 | 0.06 | 0.00 | 91 | 1017.9 |
| 20260905093016 | 68 | 18 | 0.0 | 2.0 | 0.00 | 0.06 | 0.00 | 91 | 1017.7 |
| 20260905091524 | 68 | 18 | 0.0 | 0.0 | 0.00 | 0.06 | 0.00 | 90 | 1017.6 |
| 20260905090004 | 68 | 18 | 0.0 | 1.0 | 0.00 | 0.06 | 0.00 | 91 | 1017.5 |
| 20260905084507 | 68 | 18 | 0.0 | 2.0 | 0.00 | 0.06 | 0.00 | 91 | 1017.5 |
| 20260905083011 | 68 | 18 | 0.0 | 2.0 | 0.00 | 0.06 | 0.00 | 90 | 1017.6 |
| 20260905081522 | 68 | 18 | 0.0 | 2.0 | 0.00 | 0.06 | 0.00 | 91 | 1017.8 |
| 20260905080025 | 69 | 18 | 0.0 | 2.0 | 0.00 | 0.06 | 0.00 | 90 | 1018.2 |